Location: Marcé
(47.5801°N, 0.3280°W)
Time: 15:38:53
(UTC+01:00)

Vanguard 3 - Pass Details

Date: 15 December 2021
Orbit: 508 x 3260 km, 33.3° (Epoch: 20 January)

Event Time Altitude Azimuth Distance (km) Brightness Sun altitude
Rises 06:55:41 0° 275° (W) 6,987 - -17.1°
Reaches altitude 10° 07:00:53 10° 267° (W) 6,125 - -16.2°
Exits shadow 07:02:28 13° 264° (W) 5,876 10.9 -16.0°
Maximum altitude 07:17:05 34° 213° (SSW) 4,368 10.7 -13.7°
Drops below altitude 10° 07:31:05 10° 157° (SSE) 5,271 12.0 -11.4°
Sets 07:35:11 0° 148° (SSE) 5,937 12.5 -10.8°
